EW9994 Weather Reports


time (UTC)temp
C
wind
direction
speed
KPH
gust
KPH
rain 1hr
cm
rain 24hr
cm
rain mn
cm
humidity
%
barometer
mb
20260905043905 18 25 4.8 11.3 0.00 0.00 0.00 83 1018.3
20260905041906 18 25 4.8 8.0 0.00 0.00 0.00 83 1018.3
20260905040405 18 25 4.8 9.7 0.00 0.00 0.00 83 1018.3
20260905034906 18 25 3.2 4.8 0.00 0.00 0.00 83 1018.3
20260905034406 18 25 4.8 8.0 0.00 0.00 0.00 83 1018.3
20260905033905 18 25 3.2 9.7 0.00 0.00 0.00 83 1018.3
20260905033405 18 25 1.6 9.7 0.00 0.00 0.00 83 1018.4
20260905031905 19 24 4.8 12.9 0.00 0.00 0.00 83 1018.3
20260905030906 18 25 8.0 12.9 0.00 0.00 0.00 83 1018.3
20260905030406 19 25 8.0 11.3 0.00 0.00 0.00 83 1018.4
20260905024405 19 25 6.4 9.7 0.00 0.00 0.00 82 1018.3
20260905023905 19 25 4.8 8.0 0.00 0.00 0.00 82 1018.4
20260905023406 19 25 1.6 11.3 0.00 0.00 0.00 82 1018.4
20260905021906 19 25 3.2 9.7 0.00 0.00 0.00 82 1018.3
20260905014905 20 25 6.4 9.7 0.00 0.00 0.00 81 1018.3
20260905013405 20 25 8.0 8.0 0.00 0.00 0.00 81 1018.3
20260905011905 20 25 8.0 12.9 0.00 0.00 0.00 80 1018.2
20260905010406 20 25 4.8 12.9 0.00 0.00 0.00 79 1018.3
20260905004405 20 25 3.2 11.3 0.00 0.00 0.00 79 1018.3
20260905001905 20 25 8.0 14.5 0.00 0.00 0.00 79 1018.4
20260905001408 20 26 11.3 16.1 0.00 0.00 0.00 78 1018.4
20260904234905 20 26 4.8 11.3 0.00 0.00 0.00 77 1018.8
20260904234405 20 26 6.4 11.3 0.00 0.00 0.00 77 1018.7
20260904233905 20 26 9.7 12.9 0.00 0.00 0.00 77 1018.8
20260904233406 20 25 8.0 12.9 0.00 0.00 0.00 77 1018.8
20260904230906 21 26 8.0 14.5 0.00 0.00 0.00 75 1018.8
20260904224905 21 23 9.7 16.1 0.00 0.00 0.00 75 1018.8
20260904224406 21 25 9.7 16.1 0.00 0.00 0.00 74 1018.9
20260904223906 21 26 8.0 14.5 0.00 0.00 0.00 74 1018.8
20260904223405 21 26 8.0 16.1 0.00 0.00 0.00 74 1018.8
20260904221905 21 25 9.7 16.1 0.00 0.00 0.00 73 1018.8
20260904220905 21 27 4.8 12.9 0.00 0.00 0.00 74 1018.8
20260904220405 21 27 8.0 14.5 0.00 0.00 0.00 73 1018.8
20260904214405 22 27 8.0 16.1 0.00 0.00 0.00 71 1018.9
20260904213906 22 27 9.7 16.1 0.00 0.00 0.00 71 1018.9
20260904211405 22 27 9.7 14.5 0.00 0.00 0.00 68 1018.8
20260904134906 33 229 4.8 14.5 0.00 0.00 0.00 43 1018.0
20260904133906 33 262 3.2 9.7 0.00 0.00 0.00 43 1018.1
20260904131907 33 191 4.8 9.7 0.00 0.00 0.00 46 1018.2
20260904130906 33 204 4.8 9.7 0.00 0.00 0.00 46 1018.4
20260904124906 33 207 4.8 12.9 0.00 0.00 0.00 47 1018.5
20260904123907 33 257 3.2 9.7 0.00 0.00 0.00 46 1018.5
20260904121906 33 252 1.6 4.8 0.00 0.00 0.00 45 1018.7
20260904121406 32 246 4.8 11.3 0.00 0.00 0.00 47 1018.8
20260904120408 32 237 9.7 12.9 0.00 0.00 0.00 47 1018.9
20260904114906 32 197 1.6 3.2 0.00 0.00 0.00 51 1018.9
20260904114406 32 197 3.2 4.8 0.00 0.00 0.00 50 1018.9
20260904113906 32 204 4.8 8.0 0.00 0.00 0.00 50 1018.9
20260904111906 32 226 6.4 14.5 0.00 0.00 0.00 48 1019.1
20260904110906 31 229 1.6 4.8 0.00 0.00 0.00 48 1019.2
20260904110406 32 229 4.8 9.7 0.00 0.00 0.00 49 1019.2
20260904103906 31 208 3.2 9.7 0.00 0.00 0.00 51 1019.4
20260904103428 31 217 4.8 9.7 0.00 0.00 0.00 52 1019.4
20260904101406 30 249 4.8 8.0 0.00 0.00 0.00 52 1019.6
20260904100906 30 185 4.8 8.0 0.00 0.00 0.00 55 1019.6
20260904100406 30 216 3.2 8.0 0.00 0.00 0.00 53 1019.7
20260904094906 30 197 3.2 4.8 0.00 0.00 0.00 53 1019.8
20260904094406 29 197 1.6 3.2 0.00 0.00 0.00 54 1019.8
20260904093906 29 197 1.6 4.8 0.00 0.00 0.00 56 1019.8
20260904093406 29 197 3.2 4.8 0.00 0.00 0.00 58 1019.8
20260904091906 28 217 4.8 4.8 0.00 0.00 0.00 60 1019.9
20260904090406 27 236 4.8 8.0 0.00 0.00 0.00 61 1020.1
20260904084906 27 31 4.8 8.0 0.00 0.00 0.00 67 1020.0
20260904084408 27 26 1.6 4.8 0.00 0.00 0.00 68 1019.9
20260904083408 26 26 3.2 4.8 0.00 0.00 0.00 69 1020.0
20260904081906 26 26 3.2 4.8 0.00 0.00 0.00 71 1019.9
20260904081406 26 26 1.6 3.2 0.00 0.00 0.00 71 1019.9
20260904073906 25 26 1.6 4.8 0.00 0.00 0.00 73 1019.7
20260904073408 25 26 1.6 3.2 0.00 0.00 0.00 73 1019.7
20260904071906 25 26 0.0 0.0 0.00 0.00 0.00 73 1019.6
20260904071406 25 26 0.0 0.0 0.00 0.00 0.00 72 1019.5
20260904070407 23 26 0.0 1.6 0.00 0.00 0.00 75 1019.5
20260904063906 21 26 1.6 3.2 0.00 0.00 0.00 80 1019.5
20260904063406 21 25 3.2 4.8 0.00 0.00 0.00 81 1019.5
20260904061906 20 25 4.8 4.8 0.00 0.00 0.00 82 1019.6
20260904061406 20 25 4.8 8.0 0.00 0.00 0.00 83 1019.6
20260904060905 20 26 3.2 8.0 0.00 0.00 0.00 83 1019.6
20260904054905 20 26 4.8 8.0 0.00 0.00 0.00 82 1019.6
20260904054406 20 26 3.2 4.8 0.00 0.00 0.00 82 1019.6
20260904053906 20 25 4.8 4.8 0.00 0.00 0.00 82 1019.5
20260904051906 20 26 6.4 9.7 0.00 0.00 0.00 82 1019.5
20260904051406 20 25 4.8 9.7 0.00 0.00 0.00 82 1019.5
20260904044905 20 26 3.2 4.8 0.00 0.00 0.00 81 1019.4
20260904044405 20 25 4.8 8.0 0.00 0.00 0.00 81 1019.3